Time,TemperatureF,DewpointF,PressureIn,WindDirection,WindDirectionDegrees,WindSpeedMPH,WindSpeedGustMPH,Humidity,HourlyPrecipIn,Conditions,Clouds,dailyrainin,SoftwareType,DateUTC
2013-07-04 00:01:00,72.0,63.0,-100.00,North,-999,-999.0,-999.0,74,0.00,,,-99.99,,2013-07-04 05:01:00,
2013-07-04 00:12:00,71.0,64.0,-100.00,North,-999,-999.0,-999.0,77,0.00,,,-99.99,,2013-07-04 05:12:00,
2013-07-04 00:33:00,71.0,64.0,-100.00,North,-999,-999.0,-999.0,77,0.00,,,-99.99,,2013-07-04 05:33:00,
2013-07-04 00:43:00,70.0,64.0,-100.00,North,-999,-999.0,-999.0,80,0.00,,,-99.99,,2013-07-04 05:43:00,
2013-07-04 01:01:00,70.0,65.0,-100.00,North,-999,-999.0,-999.0,84,0.00,,,-99.99,,2013-07-04 06:01:00,
2013-07-04 01:34:00,69.0,65.0,-100.00,North,-999,-999.0,-999.0,89,0.00,,,-99.99,,2013-07-04 06:34:00,
2013-07-04 01:43:00,69.0,66.0,-100.00,North,-999,-999.0,-999.0,92,0.00,,,-99.99,,2013-07-04 06:43:00,
2013-07-04 02:12:00,68.0,67.0,-100.00,North,-999,-999.0,-999.0,98,0.00,,,-99.99,,2013-07-04 07:12:00,
2013-07-04 02:34:00,67.0,-99.9,-100.00,North,-999,-999.0,-999.0,-999,0.00,,,-99.99,,2013-07-04 07:34:00,
2013-07-04 02:43:00,67.0,-99.9,-100.00,North,-999,-999.0,-999.0,-999,0.00,,,-99.99,,2013-07-04 07:43:00,
2013-07-04 02:53:00,67.0,-99.9,-100.00,North,-999,-999.0,-999.0,-999,0.00,,,-99.99,,2013-07-04 07:53:00,
2013-07-04 03:12:00,67.0,-99.9,-100.00,North,-999,-999.0,-999.0,-999,0.00,,,-99.99,,2013-07-04 08:12:00,
2013-07-04 03:22:00,67.0,-99.9,-100.00,North,-999,-999.0,-999.0,-999,0.00,,,-99.99,,2013-07-04 08:22:00,
2013-07-04 03:33:00,66.0,-99.9,-100.00,North,-999,-999.0,-999.0,-999,0.00,,,-99.99,,2013-07-04 08:33:00,
2013-07-04 03:43:00,67.0,-99.9,-100.00,North,-999,-999.0,-999.0,-999,0.00,,,-99.99,,2013-07-04 08:43:00,
2013-07-04 04:11:00,66.0,-99.9,-100.00,North,-999,-999.0,-999.0,-999,0.00,,,-99.99,,2013-07-04 09:11:00,
2013-07-04 04:22:00,65.0,-99.9,-100.00,North,-999,-999.0,-999.0,-999,0.00,,,-99.99,,2013-07-04 09:22:00,
2013-07-04 04:33:00,65.0,-99.9,-100.00,North,-999,-999.0,-999.0,-999,0.00,,,-99.99,,2013-07-04 09:33:00,
2013-07-04 04:42:00,65.0,-99.9,-100.00,North,-999,-999.0,-999.0,-999,0.00,,,-99.99,,2013-07-04 09:42:00,
2013-07-04 04:52:00,65.0,-99.9,-100.00,North,-999,-999.0,-999.0,-999,0.00,,,-99.99,,2013-07-04 09:52:00,
2013-07-04 05:01:00,65.0,-99.9,-100.00,North,-999,-999.0,-999.0,-999,0.00,,,-99.99,,2013-07-04 10:01:00,
2013-07-04 05:11:00,64.0,-99.9,-100.00,North,-999,-999.0,-999.0,-999,0.00,,,-99.99,,2013-07-04 10:11:00,
2013-07-04 05:34:00,64.0,-99.9,-100.00,North,-999,-999.0,-999.0,-999,0.00,,,-99.99,,2013-07-04 10:34:00,
2013-07-04 05:43:00,64.0,-99.9,-100.00,North,-999,-999.0,-999.0,-999,0.00,,,-99.99,,2013-07-04 10:43:00,
2013-07-04 06:22:00,64.0,-99.9,-100.00,North,-999,-999.0,-999.0,-999,0.00,,,-99.99,,2013-07-04 11:22:00,
2013-07-04 06:34:00,64.0,-99.9,-100.00,North,-999,-999.0,-999.0,-999,0.00,,,-99.99,,2013-07-04 11:34:00,
2013-07-04 06:43:00,64.0,-99.9,-100.00,North,-999,-999.0,-999.0,-999,0.00,,,-99.99,,2013-07-04 11:43:00,
2013-07-04 07:02:00,63.0,-99.9,-100.00,North,-999,-999.0,-999.0,-999,0.00,,,-99.99,,2013-07-04 12:02:00,
2013-07-04 07:12:00,64.0,-99.9,-100.00,North,-999,-999.0,-999.0,-999,0.00,,,-99.99,,2013-07-04 12:12:00,
2013-07-04 07:33:00,63.0,-99.9,-100.00,North,-999,-999.0,-999.0,-999,0.00,,,-99.99,,2013-07-04 12:33:00,
2013-07-04 07:43:00,64.0,-99.9,-100.00,North,-999,-999.0,-999.0,-999,0.00,,,-99.99,,2013-07-04 12:43:00,
2013-07-04 08:12:00,66.0,-99.9,-100.00,North,-999,-999.0,-999.0,-999,0.00,,,-99.99,,2013-07-04 13:12:00,
2013-07-04 08:33:00,67.0,-99.9,-100.00,North,-999,-999.0,-999.0,-999,0.00,,,-99.99,,2013-07-04 13:33:00,
2013-07-04 08:43:00,68.0,-99.9,-100.00,North,-999,-999.0,-999.0,-999,0.00,,,-99.99,,2013-07-04 13:43:00,
2013-07-04 08:53:00,69.0,67.0,-100.00,North,-999,-999.0,-999.0,95,0.00,,,-99.99,,2013-07-04 13:53:00,
2013-07-04 09:22:00,71.0,65.0,-100.00,North,-999,-999.0,-999.0,84,0.00,,,-99.99,,2013-07-04 14:22:00,
2013-07-04 09:33:00,71.0,63.0,-100.00,North,-999,-999.0,-999.0,74,0.00,,,-99.99,,2013-07-04 14:33:00,
2013-07-04 09:43:00,72.0,62.0,-100.00,North,-999,-999.0,-999.0,70,0.00,,,-99.99,,2013-07-04 14:43:00,
2013-07-04 09:53:00,72.0,62.0,-100.00,North,-999,-999.0,-999.0,70,0.00,,,-99.99,,2013-07-04 14:53:00,
2013-07-04 10:02:00,73.0,62.0,-100.00,North,-999,-999.0,-999.0,67,0.00,,,-99.99,,2013-07-04 15:02:00,
2013-07-04 10:11:00,74.0,61.0,-100.00,North,-999,-999.0,-999.0,63,0.00,,,-99.99,,2013-07-04 15:11:00,
2013-07-04 10:33:00,75.0,61.0,-100.00,North,-999,-999.0,-999.0,61,0.00,,,-99.99,,2013-07-04 15:33:00,
2013-07-04 10:43:00,75.0,62.0,-100.00,North,-999,-999.0,-999.0,62,0.00,,,-99.99,,2013-07-04 15:43:00,
2013-07-04 10:52:00,76.0,62.0,-100.00,North,-999,-999.0,-999.0,61,0.00,,,-99.99,,2013-07-04 15:52:00,
2013-07-04 11:02:00,76.0,61.0,-100.00,North,-999,-999.0,-999.0,59,0.00,,,-99.99,,2013-07-04 16:02:00,
2013-07-04 11:33:00,79.0,62.0,-100.00,North,-999,-999.0,-999.0,57,0.00,,,-99.99,,2013-07-04 16:33:00,
2013-07-04 11:43:00,79.0,61.0,-100.00,North,-999,-999.0,-999.0,54,0.00,,,-99.99,,2013-07-04 16:43:00,
2013-07-04 12:12:00,80.0,61.0,-100.00,North,-999,-999.0,-999.0,52,0.00,,,-99.99,,2013-07-04 17:12:00,
2013-07-04 12:22:00,80.0,61.0,-100.00,North,-999,-999.0,-999.0,52,0.00,,,-99.99,,2013-07-04 17:22:00,
2013-07-04 12:34:00,81.0,60.0,-100.00,North,-999,-999.0,-999.0,49,0.00,,,-99.99,,2013-07-04 17:34:00,
2013-07-04 12:43:00,81.0,60.0,-100.00,North,-999,-999.0,-999.0,49,0.00,,,-99.99,,2013-07-04 17:43:00,
2013-07-04 13:11:00,83.0,61.0,-100.00,North,-999,-999.0,-999.0,46,0.00,,,-99.99,,2013-07-04 18:11:00,
2013-07-04 13:22:00,83.0,61.0,-100.00,North,-999,-999.0,-999.0,48,0.00,,,-99.99,,2013-07-04 18:22:00,
2013-07-04 13:33:00,83.0,60.0,-100.00,North,-999,-999.0,-999.0,45,0.00,,,-99.99,,2013-07-04 18:33:00,
2013-07-04 13:43:00,83.0,60.0,-100.00,North,-999,-999.0,-999.0,45,0.00,,,-99.99,,2013-07-04 18:43:00,
2013-07-04 13:52:00,83.0,59.0,-100.00,North,-999,-999.0,-999.0,44,0.00,,,-99.99,,2013-07-04 18:52:00,
2013-07-04 14:01:00,83.0,59.0,-100.00,North,-999,-999.0,-999.0,44,0.00,,,-99.99,,2013-07-04 19:01:00,
2013-07-04 14:12:00,83.0,59.0,-100.00,North,-999,-999.0,-999.0,43,0.00,,,-99.99,,2013-07-04 19:12:00,
2013-07-04 14:22:00,83.0,60.0,-100.00,North,-999,-999.0,-999.0,44,0.00,,,-99.99,,2013-07-04 19:22:00,
2013-07-04 14:33:00,83.0,60.0,-100.00,North,-999,-999.0,-999.0,44,0.00,,,-99.99,,2013-07-04 19:33:00,
2013-07-04 14:43:00,84.0,58.0,-100.00,North,-999,-999.0,-999.0,40,0.00,,,-99.99,,2013-07-04 19:43:00,
2013-07-04 14:53:00,84.0,58.0,-100.00,North,-999,-999.0,-999.0,40,0.00,,,-99.99,,2013-07-04 19:53:00,
2013-07-04 15:01:00,84.0,58.0,-100.00,North,-999,-999.0,-999.0,40,0.00,,,-99.99,,2013-07-04 20:01:00,
2013-07-04 15:11:00,84.0,57.0,-100.00,North,-999,-999.0,-999.0,39,0.00,,,-99.99,,2013-07-04 20:11:00,
2013-07-04 15:33:00,85.0,59.0,-100.00,North,-999,-999.0,-999.0,41,0.00,,,-99.99,,2013-07-04 20:33:00,
2013-07-04 15:42:00,85.0,57.0,-100.00,North,-999,-999.0,-999.0,39,0.00,,,-99.99,,2013-07-04 20:42:00,
2013-07-04 16:01:00,86.0,58.0,-100.00,North,-999,-999.0,-999.0,39,0.00,,,-99.99,,2013-07-04 21:01:00,
2013-07-04 16:32:00,85.0,59.0,-100.00,North,-999,-999.0,-999.0,41,0.00,,,-99.99,,2013-07-04 21:32:00,
2013-07-04 16:43:00,85.0,58.0,-100.00,North,-999,-999.0,-999.0,40,0.00,,,-99.99,,2013-07-04 21:43:00,
2013-07-04 16:52:00,84.0,58.0,-100.00,North,-999,-999.0,-999.0,40,0.00,,,-99.99,,2013-07-04 21:52:00,
2013-07-04 17:22:00,85.0,57.0,-100.00,North,-999,-999.0,-999.0,38,0.00,,,-99.99,,2013-07-04 22:22:00,
2013-07-04 17:33:00,85.0,58.0,-100.00,North,-999,-999.0,-999.0,39,0.00,,,-99.99,,2013-07-04 22:33:00,
2013-07-04 17:43:00,86.0,59.0,-100.00,North,-999,-999.0,-999.0,40,0.00,,,-99.99,,2013-07-04 22:43:00,
2013-07-04 18:01:00,85.0,59.0,-100.00,North,-999,-999.0,-999.0,41,0.00,,,-99.99,,2013-07-04 23:01:00,
2013-07-04 18:12:00,84.0,58.0,-100.00,North,-999,-999.0,-999.0,40,0.00,,,-99.99,,2013-07-04 23:12:00,
2013-07-04 18:23:00,85.0,58.0,-100.00,North,-999,-999.0,-999.0,39,0.00,,,-99.99,,2013-07-04 23:23:00,
2013-07-04 18:33:00,85.0,58.0,-100.00,North,-999,-999.0,-999.0,39,0.00,,,-99.99,,2013-07-04 23:33:00,
2013-07-04 18:43:00,85.0,58.0,-100.00,North,-999,-999.0,-999.0,40,0.00,,,-99.99,,2013-07-04 23:43:00,
2013-07-04 18:52:00,85.0,58.0,-100.00,North,-999,-999.0,-999.0,40,0.00,,,-99.99,,2013-07-04 23:52:00,
2013-07-04 19:01:00,85.0,57.0,-100.00,North,-999,-999.0,-999.0,39,0.00,,,-99.99,,2013-07-05 00:01:00,
2013-07-04 19:11:00,84.0,58.0,-100.00,North,-999,-999.0,-999.0,41,0.00,,,-99.99,,2013-07-05 00:11:00,
2013-07-04 19:22:00,84.0,58.0,-100.00,North,-999,-999.0,-999.0,41,0.00,,,-99.99,,2013-07-05 00:22:00,
2013-07-04 19:32:00,84.0,58.0,-100.00,North,-999,-999.0,-999.0,41,0.00,,,-99.99,,2013-07-05 00:32:00,
2013-07-04 19:43:00,84.0,58.0,-100.00,North,-999,-999.0,-999.0,41,0.00,,,-99.99,,2013-07-05 00:43:00,
2013-07-04 20:01:00,83.0,57.0,-100.00,North,-999,-999.0,-999.0,41,0.00,,,-99.99,,2013-07-05 01:01:00,
2013-07-04 20:11:00,82.0,59.0,-100.00,North,-999,-999.0,-999.0,46,0.00,,,-99.99,,2013-07-05 01:11:00,
2013-07-04 20:32:00,81.0,60.0,-100.00,North,-999,-999.0,-999.0,48,0.00,,,-99.99,,2013-07-05 01:32:00,
2013-07-04 20:42:00,81.0,60.0,-100.00,North,-999,-999.0,-999.0,49,0.00,,,-99.99,,2013-07-05 01:42:00,
2013-07-04 21:21:00,79.0,61.0,-100.00,North,-999,-999.0,-999.0,54,0.00,,,-99.99,,2013-07-05 02:21:00,
2013-07-04 21:32:00,78.0,61.0,-100.00,North,-999,-999.0,-999.0,55,0.00,,,-99.99,,2013-07-05 02:32:00,
2013-07-04 21:42:00,78.0,62.0,-100.00,North,-999,-999.0,-999.0,57,0.00,,,-99.99,,2013-07-05 02:42:00,
2013-07-04 21:52:00,77.0,62.0,-100.00,North,-999,-999.0,-999.0,58,0.00,,,-99.99,,2013-07-05 02:52:00,
2013-07-04 22:22:00,77.0,62.0,-100.00,North,-999,-999.0,-999.0,61,0.00,,,-99.99,,2013-07-05 03:22:00,
2013-07-04 22:32:00,76.0,63.0,-100.00,North,-999,-999.0,-999.0,63,0.00,,,-99.99,,2013-07-05 03:32:00,
2013-07-04 22:42:00,76.0,62.0,-100.00,North,-999,-999.0,-999.0,63,0.00,,,-99.99,,2013-07-05 03:42:00,
2013-07-04 23:01:00,75.0,62.0,-100.00,North,-999,-999.0,-999.0,63,0.00,,,-99.99,,2013-07-05 04:01:00,
2013-07-04 23:22:00,75.0,62.0,-100.00,North,-999,-999.0,-999.0,64,0.00,,,-99.99,,2013-07-05 04:22:00,
2013-07-04 23:33:00,75.0,62.0,-100.00,North,-999,-999.0,-999.0,63,0.00,,,-99.99,,2013-07-05 04:33:00,
2013-07-04 23:43:00,74.0,62.0,-100.00,North,-999,-999.0,-999.0,63,0.00,,,-99.99,,2013-07-05 04:43:00,